FENGYUN 3D

Last updated on Mon Jun 22 2026 00:02:46 GMT+0000 (Coordinated Universal Time)

1 43010U 17072A 26172.51679571 -.00000158 00000+0 -52975-4 0 9991 2 43010 99.0133 147.0175 0002490 55.5625 304.5785 14.19739395445605
UTC large
Height (km)
Speed (km/s)
/
Latitude / Longitude
Inclination (degrees)
Orbital Period (minutes)
Azimuth
Elevation
Range (km)
Doppler Factor

Next 0 passes for location: London (51.5072 / 0.1276)

No passes found over London.
FENGYUN 3D